Regional Weather Roundup
Issued by NWS Upton, NY

Current Version | Previous Version | Text Only | Print | Product List | Glossary On
Versions: 1 2 3 4 5 6 7 8 9 10 11 12 13 14 15 16 17 18 19 20 21 22 23 24 25 26 27 28 29 30 31 32 33 34 35 36 37 38 39 40 41 42 43 44 45 46 47 48 49 50
000
ASUS41 KOKX 260305
RWROKX

REGIONAL WEATHER ROUNDUP
NATIONAL WEATHER SERVICE NEW YORK NY
1000 PM EST TUE NOV 25 2014

NOTE: "FAIR" INDICATES FEW OR NO CLOUDS BELOW 12,000 FEET WITH NO
SIGNIFICANT WEATHER AND/OR OBSTRUCTIONS TO VISIBILITY.

NYZ071-072-176-178-NJZ106-104-260400-
NEW YORK CITY METRO AREA


CITY           SKY/WX    TMP DP  RH WIND       PRES   REMARKS
CENTRAL PARK   CLOUDY    51  28  41 W8        30.15R
LAGUARDIA APRT CLOUDY    52  28  39 W9        30.13R
KENNEDY INTL   CLOUDY    49  34  56 W6        30.14R
NEWARK/LIBERTY CLOUDY    49  31  49 W5        30.13R
BRNX BOT. GARD   N/A    N/A N/A N/A SW18      30.14R
TETERBORO      CLOUDY    49  30  48 SW6       30.12R
$$

NYZ177-179-078>081-260400-
LONG ISLAND NEW YORK

CITY           SKY/WX    TMP DP  RH WIND       PRES   REMARKS
FARMINGDALE    NOT AVBL
ISLIP          CLOUDY    47  34  60 W5        30.12R
SHIRLEY        CLOUDY    48  34  58 W5        30.14R
WESTHAMPTON    CLOUDY    45  36  70 W5        30.14R
MONTAUK POINT    N/A     51  35  54 SW5       30.13R
$$

NYZ052-065-067-260400-
HUDSON VALLEY

CITY           SKY/WX    TMP DP  RH WIND       PRES   REMARKS
WHITE PLAINS   CLOUDY    45  29  53 W3        30.11R
NEWBURGH       CLEAR     43  30  61 CALM      30.10S
MONTGOMERY     MOCLDY    37  28  70 SW6       30.10R WCI  32
POUGHKEEPSIE   MOCLDY    38  31  76 E3        30.11R
ALBANY         MOCLDY    42  26  53 CALM      30.12R
$$

NJZ001-105-106-008-010-013-015-019>022-104-260400-
NEW JERSEY

CITY           SKY/WX    TMP DP  RH WIND       PRES   REMARKS
NEWARK/LIBERTY CLOUDY    49  31  49 W5        30.13R
TETERBORO      CLOUDY    49  30  48 SW6       30.12R
CALDWELL       CLOUDY    43  29  57 CALM      30.13R
MORRISTOWN       N/A     39  34  81 CALM      30.14R
SOMERVILLE     CLOUDY    37  32  82 CALM      30.14R
SUSSEX         MOCLDY    34  29  82 CALM      30.13R
ANDOVER          N/A     36  33  89 CALM      30.14R
TRENTON        CLOUDY    45  31  58 CALM      30.15R
MILLVILLE      CLOUDY    45  39  79 CALM      30.16R
ATLANTIC CITY  CLOUDY    47  37  68 CALM      30.16R
WRIGHTSTOWN    NOT AVBL
TOMS RIVER     CLOUDY    43  37  81 CALM      30.16R
BELMAR         CLOUDY    46  28  49 CALM      30.14S
$$

PAZ047>061-062-071-260400-
EASTERN PENNSYLVANIA

CITY           SKY/WX    TMP DP  RH WIND       PRES   REMARKS
PHILADELPHIA   CLOUDY    48  34  58 CALM      30.16R
ALLENTOWN      MOCLDY    37  28  70 NW3       30.13R
SCRANTON       MOCLDY    43  27  53 SW3       30.12R
$$

CTZ002-004>006-009-010-012-RIZ004-006-007-MAZ004-011-015-260400-
SOUTHERN NEW ENGLAND
 IN CT

CITY           SKY/WX    TMP DP  RH WIND       PRES   REMARKS
BRADLEY INTL   MOCLDY    43  28  55 SW6       30.09R
HARTFORD       PTCLDY    44  31  60 S7        30.10R
DANBURY        MOCLDY    35  29  78 CALM      30.12R
WTRBRY/OXFORD  MOCLDY    43  27  52 SW5       30.11S
BRIDGEPORT     CLOUDY    47  34  60 W6        30.12R
MERIDEN        PTCLDY    37  32  82 CALM      30.11R
NEW HAVEN      CLOUDY    51  35  54 W3        30.11R
CHESTER        FAIR      46  30  53 W5        30.11R
GROTON         CLOUDY    49  37  63 W8        30.10R
WILLIMANTIC    CLOUDY    38  32  79 CALM      30.10R

 IN RI

CITY           SKY/WX    TMP DP  RH WIND       PRES   REMARKS
PROVIDENCE     CLOUDY    46  30  53 SW7       30.10R
BLOCK ISLAND   CLOUDY    52  36  54 W12       30.11R
WESTERLY       CLOUDY    50  32  50 W5        30.10R

 IN MA

CITY           SKY/WX    TMP DP  RH WIND       PRES   REMARKS
BOSTON         CLOUDY    49  29  46 SW7       30.08R
WORCESTER      MOCLDY    39  27  62 SW8       30.06R WCI  33
WESTFIELD      CLEAR     33  29  85 CALM      30.08R
PROVINCETOWN   CLOUDY    50  37  62 W8        30.09R
NANTUCKET      CLOUDY    52  42  69 W10       30.10R
$$

ANZ330-335-338-340-345-350-353-355-260400-
COASTAL MARINE OBSERVATIONS


STATION/POSITION TIME  SKY/WX   TEMP    WIND        PRES    VSBY  WAVE
                                AIR SEA DIR/SP/G                  HT/PER
                 (UTC)          (F)     (DEG/KT/KT) (MB)    (MI)  (FT/S)
NY HARB ENTRANCE 0300            53 54  270/ 10/ 14 1020.7          4/ 9
4S FIRE IS       0300               53                N/A           5/ 9
20S FIRE ISLAND  0300            54 55  290/ 14/ 16 1020.1          5/ 9
23SW MTP         0300                                 N/A           5/10
HUDSON CANYON    0300            55 60  300/ 10/ 14 1019.9          5/10
EXECUTION ROCKS  0300            51 48  270/  8/ 10   N/A
WESTERN LI SOUND 0300            52     270/ 10/ 10   N/A           0
CENTRAL LI SOUND 0200            51 50  240/ 10/ 12   N/A           1/ 3
EASTERN LI SOUND 0200            52 52  260/ 14/ 17   N/A
ROBBINS REEF     0300            50     280/  6/  8 1019.2
$$


>>>>>>>>>>>>>>>>>>>>>>>>>>>> KEY <<<<<<<<<<<<<<<<<<<<<<<<<<<
>                                                          <
>     SKY/WX - SKY CONDITION/PRESENT WEATHER               <
>     TMP    - TEMPERATURE IN FAHRENHEIT                   <
>     DP     - DEWPOINT IN FAHRENHEIT                      <
>     RH     - RELATIVE HUMIDITY IN PERCENT                <
>     WIND   - DIRECTION AND SPEED IN MPH                  <
>     PRES   - MEAN SEA LEVEL PRESSURE IN INCHES OF HG     <
>     WCI    - WIND CHILL INDEX                            <
>     VSB    - VISIBILITY IN MILES                         <
>     HX     - HEAT INDEX                                  <
>     TC     - TEMPERATURE IN CELSIUS                      <
>     VRB    - VARIABLE WIND DIRECTION                     <
>                                                          <
>>>>>>>>>>>>>>>>>>>>>>>>>>>> KEY <<<<<<<<<<<<<<<<<<<<<<<<<<<




USA.gov is the U.S. government's official web portal to all federal, state and local government web resources and services.